Regional Weather Roundup
Issued by NWS

Home | Current Version | Previous Version | Graphics & Text | Print | Product List | Glossary On
Versions: 1 2 3 4 5 6 7 8 9 10 11 12 13 14 15 16 17 18 19 20 21 22 23 24 25 26 27
000
ASUS45 KBOI 280610
RWRID

IDAHO REGIONAL WEATHER ROUNDUP
NATIONAL WEATHER SERVICE BOISE ID
1200 AM MDT TUE MAR 28 2017

NOTE: "FAIR" INDICATES FEW OR NO CLOUDS BELOW 12000 FEET
WITH NO SIGNIFICANT WEATHER AND/OR OBSTRUCTIONS TO VISIBILITY

IDZ012-014-280700-
SOUTHWEST IDAHO


CITY           SKY/WX    TMP DP  RH WIND       PRES   REMARKS
BOISE          CLEAR     40  32  73 NW7       30.18R
CALDWELL       CLEAR     40  33  76 W12       30.21R WCI  33
MOUNTAIN HOME  CLEAR     40  36  85 NW13      30.16R WCI  33
$$

IDZ016-017-280700-
SOUTHCENTRAL IDAHO


CITY           SKY/WX    TMP DP  RH WIND       PRES   REMARKS
BURLEY         MOCLDY    39  27  62 SW12G18   30.09R WCI  32
JEROME         CLEAR     38  30  73 SW17      30.10R WCI  28
TWIN FALLS     CLEAR     36  28  73 SW20      30.11R WCI  25
$$

IDZ019>023-280700-
SOUTHEAST IDAHO


CITY           SKY/WX    TMP DP  RH WIND       PRES   REMARKS
IDAHO FALLS    CLOUDY    37  37 100 W7        30.05R WCI  32
POCATELLO      CLOUDY    37  34  89 S13       30.08R WCI  29
REXBURG        CLOUDY    39  36  89 NW5       30.04R
$$

IDZ006-010-011-018-031-032-280700-
CENTRAL IDAHO MOUNTAINS


CITY           SKY/WX    TMP DP  RH WIND       PRES   REMARKS
MCCALL         CLEAR     30  24  78 N5        30.15R WCI  25
HAILEY         CLEAR     36  27  69 NW7       30.08R WCI  30
STANLEY          N/A     28  23  81 CALM      30.13R
SALMON         CLEAR     36  23  60 SE3       30.14R
CHALLIS        CLEAR     33  22  63 N7        30.11R WCI  27
$$

IDZ002-004-006-007-026-280700-
NORTHERN IDAHO


CITY           SKY/WX    TMP DP  RH WIND       PRES   REMARKS
LEWISTON       MOCLDY    45  31  58 SW8       30.22R
LOWELL           N/A     41  38  89 CALM      30.26R
COEUR D`ALENE  CLOUDY    40  36  86 SE6       30.16S
MULLAN PASS    LGT SNOW  28  27  96 VRB3      30.10S FOG
$$




USA.gov is the U.S. government's official web portal to all federal, state and local government web resources and services.